Volver al catálogo

CBERS-4

ActivoCienciaSSO
NORAD 40336·PAYLOAD·🇨🇳 China

Lanzado Dec 7, 2014 desde Taiyuan Satellite Launch Center

Loading…

Próximos Pases (próximas 24 horas)

TLE

ActualizadoSource: Space-Track

Época: Sep 14, 2026, 14:29 UTC

1 40336U 14079A   26257.60365993  .00000106  00000-0  51538-4 0  9993
2 40336  98.3443 311.5903 0001963  96.7463 263.3947 14.35519005616780

Sigue CBERS-4 en tiempo real con AllMySat

Download on the App Store